{"data":{"norad_id":62146,"intl_designator":"2024-224H","name":"STARLINK-32384","alt_names":[],"object_type":"PAYLOAD","status":"ACTIVE","operator":null,"country":"US","launch_date":"2024-11-30","launch_site_code":"AFETR","launch_vehicle":null,"mission":null,"orbit_class":"UNKNOWN","rcs_meters":null,"size_class":null,"mass_kg":null,"dimensions":null,"purposes":["comms"],"wikipedia_slug":null,"has_3d_model":false,"image_url":null,"decayed_at":null,"tle_current":{"epoch":"2026-05-24T23:06:07.236864Z","epoch_age_seconds":88800,"freshness":"FRESH","line1":"1 62146U 24224H   26144.96258376  .00013018  00000+0  48158-3 0  9997","line2":"2 62146  43.0042  87.4713 0001750 286.6550  73.4110 15.27592373 84146","mean_motion":15.27592373,"eccentricity":0.000175,"inclination_deg":43.0042,"raan_deg":87.4713,"arg_perigee_deg":286.655,"mean_anomaly_deg":73.411,"bstar":0.00048158,"rev_number":8414,"period_min":94.265985183732,"perigee_km":481.81134599332,"apogee_km":484.2127481598,"semimajor_km":6861.1490470766,"source":"CELESTRAK","updated_at":"2026-05-25T13:38:19.570261Z"}}}